Location: Liscomb Game Sanctuary
(45.1633°N, 62.5575°W)
Time: 12:33:22
(UTC-03:00)

Meteor 1-25 Rocket - Pass Details

Date: 22 February 2018
Orbit: 835 x 893 km, 81.2° (Epoch: 22 June)

Event Time Altitude Azimuth Distance (km) Brightness Sun altitude
Rises 18:48:07 0° 183° (S) 3,371 7.4 -11.3°
Reaches altitude 10° 18:50:30 10° 182° (S) 2,440 6.7 -11.7°
Maximum altitude 18:56:00 74° 98° (E) 872 4.1 -12.7°
Drops below altitude 10° 19:01:35 10° 14° (NNE) 2,470 6.5 -13.7°
Sets 19:04:01 0° 13° (NNE) 3,416 7.2 -14.1°
